[[{"header":{"parameterUnit":"m.s-1","parameterCategory":1,"la1":30.2991,"la2":30.254,"lo1":-89.0895,"lo2":-89.0444,"dy":0.0017,"dx":0.0017,"nx":28,"ny":28,"refTime":"2025-03-15T09:00:00:Z","depth":0,"parameterNumber":2,"parameterNumberName":"U-component_of_WINDS"},"data":[0,0,0,0,0,0,0,0,0,0,0,0,0,0,0,0,0,0,0,0,0,0,0,0,0,0,0,0,0,0,0,0,0,0,0,0,0,0,0,0,0,0,0,0,0,0,0,0,0,0,0,0,0,0,0,0,0,0,4.0754,4.0755,0,4.0855,4.0856,4.0858,4.0819,4.0816,4.0814,4.0812,4.0917,4.0922,4.0927,0,0,0,0,0,0,0,0,0,0,0,0,0,4.0531,4.0535,4.0754,4.0755,4.0757,4.0855,4.0857,4.0858,4.0819,4.0816,4.0813,4.0811,4.0916,4.0921,4.0927,0,0,0,0,0,0,0,0,0,0,0,0,0,4.0629,4.0536,4.0754,4.0749,4.075,4.0855,4.0857,4.0858,4.082,4.0816,4.0813,4.0809,4.0914,4.0921,4.0928,4.1045,0,0,4.0951,4.0954,0,0,0,0,0,0,0,0,4.0624,4.0638,4.0749,4.075,4.0751,4.0821,4.0816,4.0921,4.0821,4.0793,4.0812,4.0808,4.0888,4.0897,4.0924,4.1049,4.1054,4.0952,4.0956,4.0959,4.0962,0,0,0,0,0,0,0,4.0617,4.0633,4.0794,4.075,4.0752,4.0743,4.0753,4.0836,4.0859,4.0795,4.0793,4.0805,4.0888,4.0917,4.0926,4.1056,4.0952,4.0958,4.0963,4.0966,4.1284,4.1288,0,0,0,0,0,0,4.061,4.0628,4.0791,4.0797,4.0677,4.075,4.0761,4.0802,4.0858,4.0863,4.0808,4.0803,4.0906,4.0918,4.093,4.1071,4.0959,4.0966,4.0971,4.128,4.1285,4.1289,0,0,0,0,0,0,4.0605,4.0624,4.0787,4.0712,4.0732,4.0757,4.0803,4.0806,4.0835,4.0868,4.0872,4.0833,4.0904,4.0919,4.1017,4.1074,4.097,4.0977,4.1275,4.1282,4.1287,4.1354,0,0,0,0,0,0,4.0599,4.0623,4.0667,4.0713,4.0736,4.0871,4.0807,4.081,4.0847,4.0842,4.0893,4.0898,4.0902,4.1006,4.1024,4.1083,4.0982,4.127,4.1278,4.1285,4.1347,4.1362,4.1375,0,0,0,0,0,4.0591,4.0681,4.0669,4.0689,4.0791,4.0875,4.0888,4.0891,4.0852,4.0897,4.0919,4.0896,4.1065,4.1016,4.1036,4.1098,4.1267,4.1276,4.1285,4.1341,4.1359,4.1374,0,0,0,0,0,0,4.0641,4.0687,4.0674,4.0782,4.0825,4.0868,4.0924,4.0909,4.0964,4.0957,4.0958,4.097,4.1071,4.1094,4.1039,4.1215,4.116,4.1174,4.1196,4.1214,4.1227,4.122,4.0989,0,0,0,0,0,4.0665,4.0728,4.0765,4.0857,4.0879,4.0899,4.0935,4.0934,4.0978,4.0996,4.1024,4.1069,4.1133,4.1174,4.1234,4.135,4.1362,4.1403,4.1417,4.1428,4.144,4.1505,4.1524,4.1319,4.1318,4.1318,0,0,4.0714,4.0748,4.0787,4.0868,4.0901,4.0968,4.0914,4.0986,4.1036,4.1007,4.1101,4.1124,4.1174,4.1282,4.1331,4.1304,4.1499,4.1439,4.1448,4.1454,4.1516,4.1536,4.1553,4.1325,4.1323,4.1323,0,0,4.0839,4.087,4.0951,4.0985,4.1036,4.1048,4.1068,4.1114,4.1128,4.1222,4.1202,4.1262,4.137,4.1408,4.1441,4.1582,4.1564,4.1602,4.1673,4.1737,4.1753,4.1768,4.182,4.1838,4.1613,4.1613,4.1613,0,4.0895,4.0994,4.0994,4.1069,4.1106,4.1083,4.1166,4.1199,4.1267,4.1294,4.1263,4.14,4.1432,4.155,4.1584,4.1611,4.1635,4.1596,4.1751,4.1765,4.1779,4.1828,4.1848,4.1618,4.1617,4.1617,4.1616,0,4.106,4.1129,4.1189,4.1255,4.1299,4.1377,4.1391,4.1436,4.1431,4.1447,4.1545,4.1583,4.1651,4.1678,4.1674,4.1796,4.1778,4.1749,4.1694,4.1803,4.1849,4.1868,4.1624,4.1622,4.1621,4.162,0,0,4.1219,4.1285,4.1307,4.1338,4.1393,4.1447,4.1525,4.1592,4.1631,4.1679,4.1746,4.1839,4.1813,4.1851,4.1851,4.1907,4.2019,4.1871,4.1873,4.1899,4.2157,4.218,4.2201,4.2007,4.2011,4.2014,4.2154,0,4.1349,4.1485,4.1489,4.1615,4.168,4.166,4.1729,4.1771,4.1788,4.1847,4.1866,4.1933,4.1893,4.1916,4.197,4.1994,4.2071,4.1984,4.2071,4.2074,4.206,4.2226,4.2249,4.2379,4.2172,4.2175,4.2177,0,4.1518,4.1572,4.1704,4.1752,4.1779,4.1841,4.1903,4.1959,4.2007,4.2016,4.2059,4.2052,4.2134,4.2076,4.219,4.213,4.2166,4.2184,4.2189,4.2198,4.2133,4.224,4.2421,4.2441,4.2206,4.2203,4.2201,0,4.1623,4.1728,4.1821,4.1848,4.1905,4.1949,4.1975,4.202,4.206,4.2115,4.2142,4.2206,4.2241,4.2291,4.2302,4.2259,4.2417,4.2359,4.2428,4.2428,4.2462,4.246,4.2652,4.2484,4.2484,4.2483,4.2483,0,4.1768,4.185,4.1869,4.1927,4.2019,4.2023,4.2114,4.2137,4.2178,4.224,4.2227,4.2286,4.2296,4.2358,4.2367,4.2461,4.2477,4.2488,4.249,4.249,4.2489,4.2514,4.2506,4.2489,4.2487,4.2486,4.2486,0,4.19,4.1916,4.2016,4.2063,4.2076,4.2142,4.2183,4.2239,4.2255,4.2335,4.2354,4.238,4.2453,4.2469,4.2555,4.2561,4.2673,4.2665,4.2657,4.2657,4.2725,4.2719,4.2941,4.2971,4.2782,4.2784,4.2785,0,4.1992,4.2055,4.2108,4.2149,4.2177,4.2243,4.2285,4.2292,4.2336,4.2397,4.2446,4.2517,4.2574,4.2692,4.2719,4.2786,4.278,4.2854,4.279,4.2789,4.2783,4.278,4.2787,4.2866,4.2868,4.287,4.2871,0,4.2154,4.216,4.2219,4.2283,4.2333,4.2383,4.2431,4.2466,4.248,4.253,4.2604,4.2649,4.2738,4.2809,4.2876,4.2904,4.2891,4.2891,4.291,4.2912,4.2905,4.2911,4.2691,4.2886,4.2884,4.2883,4.2882,4.2882,4.227,4.2326,4.2373,4.244,4.2477,4.2523,4.2578,4.2602,4.2664,4.2736,4.2737,4.2819,4.2867,4.2956,4.2988,4.3053,4.303,4.3058,4.3066,4.3073,4.308,4.2894,4.3065,4.3065,4.3064,4.3064,4.3064,0,4.2433,4.2462,4.2525,4.2592,4.2646,4.2629,4.2681,4.2728,4.28,4.2846,4.2903,4.2989,4.3059,4.3093,4.3162,4.3208,4.3204,4.3226,4.3223,4.323,4.3095,4.3072,4.3228,4.3228,4.3228,4.3228,4.3228,4.3228,4.2524,4.2618,4.2629,4.2742,4.2771,4.285,4.2882,4.2925,4.2962,4.3059,4.3116,4.3138,4.318,4.3253,4.3317,4.3325,4.3352,4.3378,4.3383,4.3256,4.324,4.3224,4.3202,4.3383,4.3383,4.3513,4.3514,4.3515]},{"header":{"parameterUnit":"m.s-1","parameterCategory":1,"la1":30.2991,"la2":30.254,"lo1":-89.0895,"lo2":-89.0444,"dy":0.0017,"dx":0.0017,"nx":28,"ny":28,"refTime":"2025-03-15T09:00:00:Z","depth":0,"parameterNumber":3,"parameterNumberName":"V-component_of_WINDS"},"data":[0,0,0,0,0,0,0,0,0,0,0,0,0,0,0,0,0,0,0,0,0,0,0,0,0,0,0,0,0,0,0,0,0,0,0,0,0,0,0,0,0,0,0,0,0,0,0,0,0,0,0,0,0,0,0,0,0,0,-5.2251,-5.2253,0,-5.2415,-5.2417,-5.2419,-5.2395,-5.2392,-5.239,-5.2387,-5.2556,-5.2563,-5.257,0,0,0,0,0,0,0,0,0,0,0,0,0,-5.1921,-5.1928,-5.2251,-5.2253,-5.2255,-5.2415,-5.2417,-5.2419,-5.2396,-5.2392,-5.2389,-5.2386,-5.2554,-5.2562,-5.2571,0,0,0,0,0,0,0,0,0,0,0,0,0,-5.2073,-5.193,-5.2251,-5.2263,-5.2265,-5.2414,-5.2417,-5.242,-5.2396,-5.2392,-5.2388,-5.2384,-5.2551,-5.2561,-5.2572,-5.272,0,0,-5.2604,-5.2609,0,0,0,0,0,0,0,0,-5.2064,-5.2085,-5.2259,-5.2262,-5.2265,-5.238,-5.2363,-5.252,-5.2397,-5.2347,-5.2387,-5.2382,-5.2501,-5.2516,-5.2555,-5.2728,-5.2735,-5.2605,-5.2612,-5.2616,-5.2619,0,0,0,0,0,0,0,-5.2054,-5.2078,-5.2316,-5.2262,-5.2266,-5.2261,-5.2278,-5.2392,-5.2445,-5.2351,-5.235,-5.2369,-5.2502,-5.2545,-5.2559,-5.2737,-5.2605,-5.2614,-5.2621,-5.2625,-5.3041,-5.3046,0,0,0,0,0,0,-5.204,-5.2069,-5.2311,-5.2321,-5.2153,-5.227,-5.2289,-5.2348,-5.2444,-5.2454,-5.2372,-5.2367,-5.2529,-5.2547,-5.2565,-5.2746,-5.2616,-5.2626,-5.2632,-5.3037,-5.3042,-5.3048,0,0,0,0,0,0,-5.2033,-5.2061,-5.2304,-5.2195,-5.2225,-5.228,-5.2346,-5.2353,-5.2396,-5.246,-5.247,-5.2407,-5.2527,-5.255,-5.2682,-5.2752,-5.2631,-5.264,-5.3031,-5.3039,-5.3045,-5.3108,0,0,0,0,0,0,-5.2023,-5.2059,-5.2115,-5.2196,-5.2231,-5.2418,-5.235,-5.2359,-5.2414,-5.2409,-5.2495,-5.2505,-5.2525,-5.2666,-5.2692,-5.2764,-5.2649,-5.3025,-5.3034,-5.3043,-5.31,-5.3116,-5.313,0,0,0,0,0,-5.2012,-5.2126,-5.2118,-5.2147,-5.2302,-5.2421,-5.2442,-5.2462,-5.242,-5.2477,-5.2519,-5.2502,-5.2739,-5.268,-5.2709,-5.2785,-5.3021,-5.3032,-5.3042,-5.3093,-5.3113,-5.313,0,0,0,0,0,0,-5.2052,-5.2137,-5.2129,-5.2273,-5.234,-5.2417,-5.249,-5.2482,-5.2564,-5.2556,-5.2578,-5.2598,-5.2732,-5.2771,-5.2703,-5.2934,-5.2875,-5.2892,-5.2903,-5.2923,-5.2938,-5.2926,-5.2658,0,0,0,0,0,-5.2077,-5.2166,-5.2236,-5.2356,-5.2391,-5.2435,-5.2487,-5.2498,-5.2569,-5.2597,-5.2648,-5.2718,-5.2809,-5.2868,-5.2954,-5.3106,-5.3125,-5.3172,-5.3187,-5.32,-5.3214,-5.3299,-5.3322,-5.3082,-5.3082,-5.3082,0,0,-5.2131,-5.2189,-5.2243,-5.2366,-5.2419,-5.2512,-5.2459,-5.2559,-5.2629,-5.2612,-5.274,-5.278,-5.286,-5.3003,-5.3068,-5.304,-5.3285,-5.3213,-5.3222,-5.3231,-5.3313,-5.3335,-5.3355,-5.309,-5.3088,-5.3087,0,0,-5.2277,-5.2328,-5.2435,-5.249,-5.2572,-5.2601,-5.2626,-5.2706,-5.2732,-5.286,-5.2851,-5.2934,-5.3089,-5.3147,-5.3197,-5.3366,-5.3355,-5.3394,-5.3474,-5.3556,-5.3575,-5.3592,-5.3655,-5.3677,-5.3408,-5.3409,-5.3409,0,-5.2333,-5.2472,-5.2491,-5.2593,-5.2648,-5.2638,-5.2747,-5.28,-5.2906,-5.2945,-5.2912,-5.3107,-5.316,-5.3317,-5.3359,-5.3399,-5.343,-5.3385,-5.3571,-5.3588,-5.3604,-5.3664,-5.3687,-5.3413,-5.3412,-5.3412,-5.3411,0,-5.2539,-5.2635,-5.2712,-5.2815,-5.2879,-5.2984,-5.302,-5.3082,-5.3087,-5.312,-5.3253,-5.3316,-5.3416,-5.3454,-5.346,-5.3613,-5.3593,-5.3565,-5.3506,-5.3631,-5.3688,-5.3711,-5.3419,-5.3417,-5.3416,-5.3415,0,0,-5.2714,-5.2827,-5.2855,-5.2902,-5.2992,-5.3068,-5.3173,-5.3271,-5.3325,-5.3399,-5.3489,-5.3622,-5.3597,-5.3654,-5.3666,-5.3739,-5.3872,-5.3702,-5.3704,-5.3733,-5.4047,-5.4068,-5.4094,-5.3864,-5.3869,-5.3872,-5.404,0,-5.2869,-5.3055,-5.3076,-5.3242,-5.3333,-5.3325,-5.3418,-5.3484,-5.3518,-5.36,-5.3638,-5.3732,-5.3691,-5.3726,-5.3797,-5.384,-5.3935,-5.3828,-5.395,-5.3954,-5.3931,-5.4123,-5.4146,-5.4301,-5.4062,-5.4066,-5.4069,0,-5.3075,-5.3155,-5.3331,-5.341,-5.3449,-5.3531,-5.3624,-5.3702,-5.3778,-5.3798,-5.3862,-5.3865,-5.3976,-5.3912,-5.4066,-5.3993,-5.4044,-5.4073,-5.4079,-5.4092,-5.402,-5.4143,-5.4351,-5.4375,-5.4104,-5.4101,-5.4098,0,-5.3188,-5.3339,-5.3464,-5.3505,-5.36,-5.3658,-5.3701,-5.3772,-5.383,-5.3912,-5.395,-5.4043,-5.4095,-5.4167,-5.4197,-5.4147,-5.435,-5.4287,-5.4371,-5.437,-5.4414,-5.4411,-5.4635,-5.4445,-5.4445,-5.4444,-5.4444,0,-5.336,-5.3468,-5.3516,-5.3593,-5.3714,-5.3738,-5.3858,-5.3898,-5.3962,-5.4048,-5.4047,-5.4128,-5.4161,-5.4247,-5.4271,-5.4396,-5.4419,-5.4439,-5.4444,-5.444,-5.4438,-5.4474,-5.4465,-5.445,-5.4449,-5.4448,-5.4447,0,-5.3506,-5.3542,-5.3678,-5.3757,-5.378,-5.3866,-5.3935,-5.401,-5.4043,-5.4152,-5.4179,-5.4232,-5.4334,-5.437,-5.4494,-5.451,-5.4655,-5.4651,-5.463,-5.4631,-5.4713,-5.4706,-5.497,-5.5006,-5.4791,-5.4793,-5.4794,0,-5.3613,-5.3696,-5.3785,-5.3842,-5.3887,-5.3979,-5.4039,-5.4066,-5.4128,-5.4222,-5.4286,-5.4388,-5.447,-5.4634,-5.4684,-5.4779,-5.4778,-5.4864,-5.4792,-5.4786,-5.4781,-5.4777,-5.4786,-5.4878,-5.488,-5.4882,-5.4883,0,-5.3802,-5.3816,-5.3902,-5.3995,-5.4066,-5.414,-5.4213,-5.426,-5.4298,-5.4369,-5.4473,-5.4537,-5.4664,-5.4766,-5.4864,-5.4908,-5.4904,-5.4905,-5.493,-5.4927,-5.4912,-5.4923,-5.4668,-5.4899,-5.4898,-5.4896,-5.4895,-5.4895,-5.3933,-5.4007,-5.4082,-5.4178,-5.4235,-5.4303,-5.4378,-5.4421,-5.4509,-5.4614,-5.4625,-5.4738,-5.4813,-5.4944,-5.4994,-5.5084,-5.506,-5.5095,-5.5105,-5.5113,-5.512,-5.4897,-5.5101,-5.5101,-5.5101,-5.51,-5.51,0,-5.4123,-5.4171,-5.4259,-5.436,-5.4436,-5.4424,-5.4504,-5.4569,-5.4668,-5.4738,-5.482,-5.4941,-5.504,-5.5098,-5.5198,-5.5258,-5.5259,-5.5284,-5.528,-5.5291,-5.5135,-5.5104,-5.5282,-5.5282,-5.5282,-5.5282,-5.5282,-5.5282,-5.4231,-5.4356,-5.438,-5.4534,-5.4581,-5.4692,-5.4739,-5.4802,-5.4859,-5.4994,-5.5076,-5.5113,-5.518,-5.5284,-5.5375,-5.539,-5.5427,-5.5455,-5.5468,-5.5321,-5.5302,-5.5284,-5.5256,-5.5462,-5.5463,-5.5617,-5.5619,-5.562]}]]